Regional Weather Roundup
Issued by NWS Charleston, SC

Current Version | Previous Version | Graphics & Text | Print | Product List | Glossary On
Versions: 1 2 3 4 5 6 7 8 9 10 11 12 13 14 15 16 17 18 19 20 21 22 23 24 25 26 27 28 29 30 31 32 33 34 35 36 37 38 39 40 41 42 43 44 45 46 47 48 49 50
000
ASUS42 KCHS 221527
RWRCHS

REGIONAL WEATHER ROUNDUP
NATIONAL WEATHER SERVICE CHARLESTON SC
1100 AM EDT SUN OCT 22 2017

NOTE: "FAIR" INDICATES FEW OR NO CLOUDS BELOW 12,000 FEET WITH NO
SIGNIFICANT WEATHER AND/OR OBSTRUCTIONS TO VISIBILITY.

NOT ALL STATIONS ARE QUALITY CONTROLLED. USE DATA WITH CAUTION...
ESPECIALLY DEWPOINT OBSERVATIONS.

SCZ027-030-031-034>040-042>050-221600-
...SOUTHEAST SOUTH CAROLINA...

CITY           SKY/WX    TMP DP  RH WIND       PRES   REMARKS
N CHARLESTON   MOSUNNY   77  67  71 E10       30.28F
WATERFRONT PRK   N/A     75  67  76 NE12      30.13
JOHNS ISLAND   FAIR      81  68  65 NE13G20   30.27F
PINOPOLIS        N/A     72  70  94 E7        30.22S
MONCKS CORNER  FAIR      73  68  83 E6        30.30S
SUMMERVILLE    CLOUDY    73  66  78 NE3       30.30F
BEAUFORT MCAS  CLOUDY    76  68  76 MISG      30.27S
BEAUFORT ARPT  CLOUDY    73  66  78 NE10      30.26S
HILTON HEAD IS DRIZZLE   75  68  78 NE9       30.26F
WALTERBORO     CLOUDY    73  66  78 E8        30.30R
ALLENDALE        N/A     75  64  69 VRB6G13     N/A

...SOUTHERN MIDLANDS AND PEE DEE...

CITY           SKY/WX    TMP DP  RH WIND       PRES   REMARKS
GEORGETOWN     CLOUDY    75  68  78 E9        30.32R
KINGSTREE      PTSUNNY   75  64  69 E3        30.31F
ORANGEBURG     MOSUNNY   74  64  71 E8        30.31S
BARNWELL         N/A     77  66  69 E10       30.29F
AIKEN          FAIR      73  61  64 E12       30.33F
MANNING        PTSUNNY   77  55  47 MISG      30.31S
COLUMBIA       MOSUNNY   76  62  62 E9        30.31F
SUMTER         SUNNY     74  60  61 E10       30.30F
FLORENCE       SUNNY     74  63  68 E12       30.34S
MYRTLE BEACH   PTSUNNY   74  68  81 E10       30.33S
N MYRTLE BEACH PTSUNNY   76  66  71 E12G17    30.32S

$$

GAZ063-065-086>088-099>101-113>116-118-119-134>141-150-221600-
...SOUTHEAST GEORGIA...

CITY           SKY/WX    TMP DP  RH WIND       PRES   REMARKS
SAVANNAH ARPT  LGT RAIN  72  71  97 E9        30.27S FOG
HUNTER AAF     DRIZZLE   72  70  93 E9        30.24S FOG
FORT STEWART   DRIZZLE   72  70  94 NE8       30.23F
STATESBORO     CLOUDY    77  62  59 E6        30.26F
SYLVANIA       CLOUDY    78  68  72 E9        30.28F
CLAXTON        CLOUDY    75  68  79 NE6       30.26S

...CSRA...CENTRAL AND FAR SOUTHEAST GEORGIA...

CITY           SKY/WX    TMP DP  RH WIND       PRES   REMARKS
THOMSON        SUNNY     76  64  66 S10G16    30.32F
AUGUSTA-BUSH   SUNNY     78  64  61 E10       30.28F
AUGUSTA-DANIEL SUNNY     76  63  64 E13       30.30F
SWAINSBORO     PTSUNNY   77  64  65 E8        30.26S
VIDALIA        MOSUNNY   81  68  65 E12G21    30.24F
EASTMAN        FAIR      81  56  41 E14G22    30.25F
HAZLEHURST     FAIR      79  63  57 E10G16    30.22F
ALMA           PTSUNNY   77  69  76 E8G16     30.21F
WAYCROSS       PTSUNNY   79  70  72 E9        30.21F
JESUP          CLOUDY    79  70  73 E8        30.24
BAXLEY         PTSUNNY   75  70  83 E7G17     30.23S
BRUNSWICK      CLOUDY    77  70  78 NE12      30.23S
SAINT SIMONS   MOSUNNY   80  74  81 NE13      30.21F

$$

SCZ027-028-034-036>038-045-046-048>050-GAZ119-141-221600-
...LAKE AND SUPPLEMENTAL COASTAL OBSERVATIONS...

STATION/POSITION TIME  TEMP    WIND        PRES    WAVE   SWELL
                       AIR SEA DIR/SP/G            HT/PER HT/PER/DIR
                 (UTC) (F)     (DEG/KT/KT) (MB)    (FT/S) (FT/S/D)
WINYAH BAY       1445   74      70/  8     1026.0S
LAKE MURRAY      1420   69      80/  6/  9 1026.1
ACE BASIN NERRS  1445   75      40/  4     1025.0S
FORT PULASKI     1500   72 73   90/  8/  9 1025.2
SAPELO ISLAND    NOT AVBL

$$

ANZ835-935-AMZ111-154-330-350-352-354-370-450-454-472-221600-
...C-MAN AND BUOY OBSERVATIONS...

STATION/POSITION TIME  TEMP    WIND        PRES    WAVE   SWELL
                       AIR SEA DIR/SP/G            HT/PER HT/PER/DIR
                 (UTC) (F)     (DEG/KT/KT) (MB)    (FT/S) (FT/S/D)
BUOY 41004       1510   79 79   90/ 17/ 21 1024.6
BUOY 41008       1450   77 77   90/  8/  8 1022.9F   5/ 7   5/140/ 7
FOLLY BEACH CMAN 1500   74      40/ 14/ 16 1025.7F
CAPERS NEARSHORE 1508   72 73   50/ 10/ 14 1025.0F
FRIPP NEARSHORE  1508   74      60/ 14/ 19   N/A


STATION/POSITION TIME  TEMP    WIND        PRES    WAVE   SWELL
                       AIR SEA DIR/SP/G            HT/PER HT/PER/DIR
                 (UTC) (F)     (DEG/KT/KT) (MB)    (FT/S) (FT/S/D)
5E ST. MARYS GA  1500      77                N/A     5/ 7
FRYING PAN BUOY  1510   77 76  100/ 10/ 12 1026.4
BUOY 41025       1450   76 81   60/  8/ 12 1027.7F   3/ 8   2/110/ 8
CAPE LOOKOUT NC  1500   74      30/ 12/ 14 1027.2F
BUOY 41002       1450   77 80   90/ 12/ 16 1026.2F   4/ 8   3/ 80/ 8
BUOY 41010       NOT AVBL
ST AUGUSTINE FL  1500   79 77  100/  7/  8 1022.3F


$$




USA.gov is the U.S. government's official web portal to all federal, state and local government web resources and services.